Resurs 1-4 Rocket - Orbit

View from above orbital plane
View from above orbital plane
View from above satellite
View from above satellite

Ground track
Ground track

The orbit data is extracted from the following two-line orbital elements,

1 25400U 98043G   13143.07642295  .00000006  00000-0  19908-4 0  3791
2 25400 098.2918 135.4709 0009129 341.0661 019.0179 14.25188804773376
Epoch (UTC): 23 May 2013 01:50:02
Eccentricity: 0.0009129
inclination: 98.2918°
perigee height: 801 km
apogee height: 814 km
right ascension of ascending node: 135.4709°
argument of perigee: 341.0661°
revolutions per day: 14.25188804
mean anomaly at epoch: 19.0179°
orbit number at epoch: 77337

The dashed part of the orbit path shows where the satellite is in the earth's shadow,  

Developed and maintained by Chris Peat, Heavens-Above GmbH. Please read the updated FAQ before sending e-mail. Imprint. DLR